Location: C�mpuri de-Sus
(45.9500°N, 22.5500°E)
Time: 12:15:01
(UTC+00:00)

Cosmos 2278 Rocket - Pass Details

Date: 04 June 2022
Orbit: 840 x 846 km, 71.0° (Epoch: 01 July)

Event Time Altitude Azimuth Distance (km) Brightness Sun altitude
Rises 21:28:11 0° 331° (NNW) 3,416 6.8 -20.2°
Reaches altitude 10° 21:30:39 10° 328° (NNW) 2,477 5.7 -20.3°
Maximum altitude 21:36:15 63° 249° (WSW) 943 2.3 -20.5°
Enters shadow 21:38:12 40° 186° (S) 1,234 2.6 -20.6°
